Regional Weather Roundup
Issued by NWS Jackson, KY

Home | Current Version | Previous Version | Graphics & Text | Print | Product List | Glossary On
Versions: 1 2 3 4 5 6 7 8 9 10 11 12 13 14 15 16 17 18 19 20 21 22 23 24 25 26 27
000
ASUS43 KJKL 191810
RWRJKL

EAST KENTUCKY HOURLY WEATHER ROUNDUP
NATIONAL WEATHER SERVICE JACKSON KY
200 PM EDT WED JUL 19 2017

NOTE: "FAIR" INDICATES FEW OR NO CLOUDS BELOW 12,000 FEET WITH
NO SIGNIFICANT WEATHER AND/OR OBSTRUCTIONS TO VISIBILITY.

* THESE REPORTS ARE NOT UNDER NWS QUALITY CONTROL AND MAY NOT
  REPORT WEATHER SUCH AS PRECIPITATION AND FOG.

KYZ079-080-083-085-087-088-110-112-115-119-120-191900
...EASTERN KENTUCKY...

CITY           SKY/WX    TMP DP  RH WIND       PRES   REMARKS
JACKSON        MOSUNNY   87  66  49 VRB5      30.16F
6HR MIN TEMP:  71; 6HR MAX TEMP:  88;

LONDON         MOSUNNY   88  67  49 W7        30.15F HX  91
6HR MIN TEMP:  68; 6HR MAX TEMP:  89;

SOMERSET*      MOSUNNY   86  63  45 W8        30.16S
MONTICELLO*    MOSUNNY   87  71  58 W12       30.17F HX  93
6HR MIN TEMP:  69; 6HR MAX TEMP:  88;

WILLIAMSBURG*  PTCLDY    88  68  51 W5        30.15F HX  91
MIDDLESBORO*   MOSUNNY   87  68  52 S3        30.15F HX  90
6HR MIN TEMP:  64; 6HR MAX TEMP:  88;

HARLAN APT*    PTCLDY    88  61  40 CALM      30.17F
PIKE CO APT*     N/A     86  70  58 NW6       30.16F HX  90
BIG SANDY APT* CLEAR     87  68  54 W5        30.15F HX  90
6HR MIN TEMP:  71; 6HR MAX TEMP:  87;

MOREHEAD APT*  PTCLDY    86  68  54 VRB5      30.15F
ASHLAND*         N/A    N/A N/A N/A MISG        N/A
$$

KYZ035-036-041-042-044-050-067-078-099-191900
...CENTRAL KENTUCKY...

CITY           SKY/WX    TMP DP  RH WIND       PRES   REMARKS
MT STERLING*   MOSUNNY   88  68  51 NW6       30.15F HX  91
FLEMING/MASON* MOSUNNY   88  66  47 W6        30.14F HX  90
DANVILLE*      SUNNY     88  64  45 W6        30.16S
LEXINGTON      MOSUNNY   88  62  41 W7        30.15S
6HR MIN TEMP:  74; 6HR MAX TEMP:  89;

FRANKFORT      SUNNY     87  64  46 SW5       30.13F
6HR MIN TEMP:  75; 6HR MAX TEMP:  87;

LOUISVILLE     MOSUNNY   93  64  38 NW8       30.12F HX  94
6HR MIN TEMP:  75; 6HR MAX TEMP:  93;

LEBANON*         N/A     86  66  51 CALM      30.15F
GLASGOW*       SUNNY     90  65  43 N5        30.14F HX  92
BOWLING GREEN  MOSUNNY   92  71  50 VRB7      30.13F HX  98
6HR MIN TEMP:  76; 6HR MAX TEMP:  92;

$$

KYZ091>093-OHZ055-061-077-WVZ005-015-034-035-042-191900
...SOUTHERN OHIO/WEST VIRGINIA...

CITY           SKY/WX    TMP DP  RH WIND       PRES   REMARKS
COVINGTON      PTSUNNY   85  70  60 W8        30.13F
COLUMBUS       MOSUNNY   88  68  51 SW9G17    30.09F HX  91
DAYTON         MOSUNNY   85  68  56 NW7       30.13F
WILMINGTON     MOSUNNY   86  69  56 CALM      30.12F HX  90
HUNTINGTON     PTSUNNY   88  69  53 W6        30.11F HX  92
CHARLESTON     MOSUNNY   90  64  42 SW7       30.11F HX  91
PINEVILLE*     MOSUNNY   87  64  46 MISG      30.22F
BECKLEY        MOSUNNY   84  62  47 W7        30.21F
BLUEFIELD      MOSUNNY   81  59  47 N7        30.23F
LOGAN CO APT*    N/A     86  66  51 CALM      30.16F
$$

VAZ002-007-008-TNZ017-027-036-066-071-191900
...SOUTHWEST VIRGINIA/EAST TENNESSEE...

CITY           SKY/WX    TMP DP  RH WIND       PRES   REMARKS
WISE*          PTSUNNY   86  55  35 W3        30.24F
JONESVILLE*      N/A     90  64  43 W6        30.18F HX  91
ABINGDON*      MOSUNNY   87  60  40 CALM      30.19F
BRISTOL        MOSUNNY   88  64  44 CALM      30.16F
MORRISTOWN*    CLEAR     88  66  48 VRB5      30.15F HX  90
SEVIERVILLE*   PTCLDY    90  63  40 NW6       30.13F HX  90
KNOXVILLE      MOSUNNY   90  61  37 W7        30.14F HX  90
LAFOLLETTE*    PTCLDY    88  68  51 VRB7G13   30.18F HX  91
OAK RIDGE      MOSUNNY   89  67  47 SE3       30.15F HX  92
CROSSVILLE     MOSUNNY   85  65  51 VRB5      30.21F
NASHVILLE      PTSUNNY   93  70  46 NW9       30.15F HX  99
$$

...KEY TO REMARKS...
VSB - VISIBILITY IN MILES
WCI - WIND CHILL INDEX
HX  - HEAT INDEX

$$




USA.gov is the U.S. government's official web portal to all federal, state and local government web resources and services.